OE3JSI-13 Weather Reports


time (UTC)temp
C
wind
direction
speed
KPH
gust
KPH
rain 1hr
cm
rain 24hr
cm
rain mn
cm
humidity
%
barometer
mb
20260503223944 20 0.0 0.0 0.00 0.00 0.00 46 1015.1
20260503222939 20 0.0 0.0 0.00 0.00 0.00 46 1014.3
20260503221934 20 0.0 0.0 0.00 0.00 0.00 46 1015.2
20260503220928 20 0.0 0.0 0.00 0.00 0.00 46 1015.2
20260503215923 20 0.0 0.0 0.00 0.00 0.00 46 1014.6
20260503214918 20 0.0 0.0 0.00 0.00 0.00 46 1014.6
20260503213912 20 0.0 0.0 0.00 0.00 0.00 46 1015.4
20260503212907 20 0.0 0.0 0.00 0.00 0.00 46 1014.7
20260503211902 20 0.0 0.0 0.00 0.00 0.00 45 1015.1
20260503210856 20 0.0 0.0 0.00 0.00 0.00 45 1014.8
20260503205851 20 0.0 0.0 0.00 0.00 0.00 45 1014.7
20260503204846 21 0.0 0.0 0.00 0.00 0.00 44 1015.8
20260503203840 21 0.0 0.0 0.00 0.00 0.00 44 1015.5
20260503202835 21 0.0 0.0 0.00 0.00 0.00 43 1014.9
20260503201830 21 0.0 0.0 0.00 0.00 0.00 43 1015.7
20260503200824 21 0.0 0.0 0.00 0.00 0.00 43 1016.0
20260503195819 21 0.0 0.0 0.00 0.00 0.00 43 1016.0
20260503194814 21 0.0 0.0 0.00 0.00 0.00 43 1015.1
20260503193808 21 0.0 0.0 0.00 0.00 0.00 42 1016.1
20260503192803 22 0.0 0.0 0.00 0.00 0.00 42 1016.0
20260503191758 22 0.0 0.0 0.00 0.00 0.00 42 1015.9
20260503190752 21 0.0 0.0 0.00 0.00 0.00 42 1015.1
20260503185747 21 0.0 0.0 0.00 0.00 0.00 42 1015.1
20260503184742 22 0.0 0.0 0.00 0.00 0.00 41 1015.9
20260503183736 22 0.0 0.0 0.00 0.00 0.00 41 1015.8
20260503182731 22 0.0 0.0 0.00 0.00 0.00 41 1015.6
20260503181726 22 0.0 0.0 0.00 0.00 0.00 41 1015.8
20260503180720 22 0.0 0.0 0.00 0.00 0.00 41 1014.9
20260503175715 23 0.0 0.0 0.00 0.00 0.00 40 1015.3
20260503174710 22 0.0 0.0 0.00 0.00 0.00 40 1014.7
20260503173704 23 0.0 0.0 0.00 0.00 0.00 40 1015.4
20260503172659 23 0.0 0.0 0.00 0.00 0.00 40 1015.6
20260503171654 23 0.0 0.0 0.00 0.00 0.00 40 1015.3
20260503170648 24 0.0 0.0 0.00 0.00 0.00 39 1015.3
20260503150544 25 0.0 0.0 0.00 0.00 0.00 39 1015.9
20260503130440 25 0.0 0.0 0.00 0.00 0.00 42 1017.3
20260503110336 22 0.0 0.0 0.00 0.00 0.00 45 1018.0
20260503090232 20 0.0 0.0 0.00 0.00 0.00 50 1019.8
20260503081205 19 0.0 0.0 0.00 0.00 0.00 52 1020.1
20260503080200 18 0.0 0.0 0.00 0.00 0.00 52 1019.3
20260503072138 18 0.0 0.0 0.00 0.00 0.00 55 1020.1
20260503071133 18 0.0 0.0 0.00 0.00 0.00 56 1019.9
20260503070128 17 0.0 0.0 0.00 0.00 0.00 55 1019.2
20260503055050 14 0.0 0.0 0.00 0.00 0.00 61 1020.3
20260503054045 13 0.0 0.0 0.00 0.00 0.00 62 1019.2
20260503053040 13 0.0 0.0 0.00 0.00 0.00 63 1020.2
20260503052034 12 0.0 0.0 0.00 0.00 0.00 63 1019.1
20260503051029 12 0.0 0.0 0.00 0.00 0.00 63 1020.2
20260503050024 11 0.0 0.0 0.00 0.00 0.00 62 1020.1
20260503045018 11 0.0 0.0 0.00 0.00 0.00 62 1020.2
20260503044013 11 0.0 0.0 0.00 0.00 0.00 62 1020.4
20260503043008 10 0.0 0.0 0.00 0.00 0.00 62 1020.4
20260503042002 10 0.0 0.0 0.00 0.00 0.00 60 1019.3
20260503040957 9 0.0 0.0 0.00 0.00 0.00 59 1020.3
20260503035952 10 0.0 0.0 0.00 0.00 0.00 58 1020.3
20260503034946 10 0.0 0.0 0.00 0.00 0.00 59 1020.5
20260503033941 9 0.0 0.0 0.00 0.00 0.00 58 1019.2
20260503032936 10 0.0 0.0 0.00 0.00 0.00 58 1020.4
20260503031930 10 0.0 0.0 0.00 0.00 0.00 59 1020.1
20260503030925 9 0.0 0.0 0.00 0.00 0.00 58 1019.1
20260503025920 10 0.0 0.0 0.00 0.00 0.00 59 1020.3
20260503024914 10 0.0 0.0 0.00 0.00 0.00 56 1020.3
20260503023909 10 0.0 0.0 0.00 0.00 0.00 57 1020.1
20260503022904 10 0.0 0.0 0.00 0.00 0.00 59 1020.3
20260503021858 10 0.0 0.0 0.00 0.00 0.00 57 1018.8
20260503020853 10 0.0 0.0 0.00 0.00 0.00 57 1020.1
20260503015848 10 0.0 0.0 0.00 0.00 0.00 57 1019.2
20260503014842 11 0.0 0.0 0.00 0.00 0.00 57 1020.0
20260503013837 10 0.0 0.0 0.00 0.00 0.00 57 1018.9
20260503012832 10 0.0 0.0 0.00 0.00 0.00 58 1019.1
20260503011826 10 0.0 0.0 0.00 0.00 0.00 57 1020.1
20260503010821 11 0.0 0.0 0.00 0.00 0.00 57 1020.2
20260503005815 11 0.0 0.0 0.00 0.00 0.00 56 1020.5
20260503004810 11 0.0 0.0 0.00 0.00 0.00 57 1019.3
20260503003805 11 0.0 0.0 0.00 0.00 0.00 57 1020.3
20260503002759 12 0.0 0.0 0.00 0.00 0.00 56 1019.3
20260503001754 11 0.0 0.0 0.00 0.00 0.00 55 1020.5
20260503000749 12 0.0 0.0 0.00 0.00 0.00 55 1020.3
20260502235743 11 0.0 0.0 0.00 0.00 0.00 55 1019.5
20260502234738 12 0.0 0.0 0.00 0.00 0.00 54 1020.6
20260502233733 12 0.0 0.0 0.00 0.00 0.00 55 1020.9
20260502232727 12 0.0 0.0 0.00 0.00 0.00 55 1020.9
20260502231722 12 0.0 0.0 0.00 0.00 0.00 55 1019.8
20260502225711 13 0.0 0.0 0.00 0.00 0.00 56 1020.9
20260502224706 12 0.0 0.0 0.00 0.00 0.00 55 1021.0